DELTA 1 DEB, 29186

Orbit data source: Space-Track

DELTA 1 DEB, 29186 is space debris in LEO originally from a launch on Thu, 11 Jan 1968 UTC launched from the Air Force Western Test Range (AFWTR). Debris objects in space refer to the collection of defunct objects orbiting the Earth. Examples of debris include non-operational satellites, rocket bodies, and fragments generated from explosions, collisions, or faulty payload assembly.

Loading next visibility...
Identifier
29186, 1968-002K
Orbit
LEO
Last TLE update
1 month ago
Origin
Manufacturer
Unknown
Mission
Spacecraft
Bus & Motor
Unknown
Mass
Unknown
Launch date (UTC)
1968-01-11 (57 years ago)
Launch vehicle
Unknown
Launch site
Air Force Western Test Range (AFWTR)
Object type
Payload
Rocket body
Debris
Shape & HBR
Unknown
Radar Cross Section
Small (<0.1 m²)

Expand to show TLE details & history

TLE from 1 month ago
0 DELTA 1 DEB
1 29186U 68002K   25140.79591814 -.00000014  00000-0  18434-3 0  9997
2 29186 105.8098 151.8186 0308089  86.5741  92.8385 12.92867042967769
Epoch: 2025-05-20T19:06Z
TLE epoch observation values (Epoch: 2025-05-20T19:06:07.327Z)
Latitude
-2.93885°
Longitude
165.77027°
Altitude
1,311.984 km
Speed
7.192 km/s
True Right ascension
22h 03m 57s
True Declination
-2° 55' 21"
Sunlit
Object was in daylight at epoch
Visualization orbit readout
Latitude
56.57313°
Longitude
20.64698°
Altitude
1,120.497 km
Speed
7.382 km/s
Apparent Right ascension
10h 38m 21s
Apparent Declination
14° 41' 28"
Sunlit
Object is in daylight
Visualization observer readout
Local Sidereal Time
21:10:30
Azimuth
334.837° NNW
Elevation
-31.69°
Doppler factor
1
Orbital elements
Apogee altitude
1,524.119 km
Perigee altitude
1,051.753 km
Semi-major axis
7,666.073 km
Eccentricity
0.03081
Inclination
105.8098°
RAAN
151.8186°
Arg. of periapsis
86.5741°
True anomaly
Unknown
Mean anomaly
92.8385°
Eccentric anomaly
Unknown
Mean motion
3.23358 °/min
Orbital period
111.33 mins
BSTAR
0.00018434
Loading maneuver chart data...
Loading SW <> Apogee altitude chart data...
Loading historical data...
Loading historical data...
Loading historical data...
Loading historical data...
Loading historical data...
Loading historical data...
Loading historical data...

DELTA 1 DEB Visibility forecast

Observer location: undefined°, undefined°

Span
Click to sort rows by Start time (UTC) header in descending order
Start Az.
Max El. time (UTC)
Max El. Az.
Max El.
End time (UTC)
End Az.
11 mins2025-07-01 13:35:12.342Z53.348° ENE2025-07-01 13:41:12.342Z103.274° ESE20.47°2025-07-01 13:46:12.342Z143.267° SSE
14 mins2025-07-01 15:24:12.342Z19.798° NNE2025-07-01 15:30:12.342Z293.433° NW44.667°2025-07-01 15:38:12.342Z209.807° SW
9 mins2025-07-01 17:14:12.342Z347.055° N2025-07-01 17:18:12.342Z311.031° NW19.09°2025-07-01 17:23:12.342Z271.363° WNW
9 mins2025-07-02 00:16:12.342Z103.065° ESE2025-07-02 00:20:12.342Z54.218° ENE26.374°2025-07-02 00:25:12.342Z359.371° N
11 mins2025-07-02 02:04:12.342Z182.618° SSW2025-07-02 02:09:12.342Z261.59° W37.308°2025-07-02 02:15:12.342Z326.93° NNW
|